| time (UTC) | temp F | wind direction | speed MPH | gust MPH | rain 1hr in | rain 24hr in | rain mn in | humidity % | barometer mb |
| 20260902083552 | 69 | 265 | 3.0 | 17.0 | 0.00 | 0.00 | 0.00 | 71 | 1019.2 |
| 20260902083051 | 68 | 261 | 7.0 | 17.0 | 0.00 | 0.00 | 0.00 | 72 | 1019.2 |
| 20260902082553 | 68 | 275 | 8.0 | 15.0 | 0.00 | 0.00 | 0.00 | 72 | 1019.2 |
| 20260902082050 | 67 | 291 | 8.0 | 17.0 | 0.00 | 0.00 | 0.00 | 74 | 1019.2 |
| 20260902081548 | 68 | 292 | 5.0 | 17.0 | 0.00 | 0.00 | 0.00 | 74 | 1019.1 |
| 20260902081049 | 67 | 241 | 7.0 | 18.0 | 0.00 | 0.00 | 0.00 | 74 | 1019.1 |
| 20260902080551 | 67 | 267 | 9.0 | 18.0 | 0.00 | 0.00 | 0.00 | 75 | 1019.2 |
| 20260902080048 | 67 | 200 | 6.0 | 16.0 | 0.00 | 0.00 | 0.00 | 74 | 1019.1 |
| 20260902075546 | 67 | 287 | 3.0 | 16.0 | 0.00 | 0.00 | 0.00 | 75 | 1019.1 |
| 20260902075046 | 67 | 236 | 3.0 | 10.0 | 0.00 | 0.00 | 0.00 | 77 | 1019.1 |
| 20260902074556 | 66 | 292 | 8.0 | 11.0 | 0.00 | 0.00 | 0.00 | 75 | 1019.1 |
| 20260902074045 | 67 | 309 | 4.0 | 11.0 | 0.00 | 0.00 | 0.00 | 77 | 1019.1 |
| 20260902073542 | 66 | 327 | 4.0 | 12.0 | 0.00 | 0.00 | 0.00 | 78 | 1019.1 |
| 20260902073042 | 66 | 297 | 3.0 | 12.0 | 0.00 | 0.00 | 0.00 | 79 | 1019.0 |
| 20260902072543 | 66 | 261 | 2.0 | 13.0 | 0.00 | 0.00 | 0.00 | 80 | 1019.0 |
| 20260902072039 | 65 | 257 | 1.0 | 13.0 | 0.00 | 0.00 | 0.00 | 81 | 1019.0 |
| 20260902071638 | 64 | 223 | 0.0 | 14.0 | 0.00 | 0.00 | 0.00 | 82 | 1018.9 |
| 20260902071038 | 64 | 292 | 5.0 | 14.0 | 0.00 | 0.00 | 0.00 | 83 | 1019.0 |
| 20260902070538 | 64 | 284 | 4.0 | 11.0 | 0.00 | 0.00 | 0.00 | 82 | 1018.9 |
| 20260902070036 | 64 | 272 | 1.0 | 13.0 | 0.00 | 0.00 | 0.00 | 84 | 1018.9 |
| 20260902065535 | 62 | 248 | 6.0 | 13.0 | 0.00 | 0.00 | 0.00 | 84 | 1018.9 |
| 20260902065034 | 62 | 288 | 4.0 | 9.0 | 0.00 | 0.00 | 0.00 | 84 | 1018.9 |
| 20260902064537 | 62 | 241 | 5.0 | 12.0 | 0.00 | 0.00 | 0.00 | 85 | 1018.8 |
| 20260902064032 | 62 | 267 | 6.0 | 11.0 | 0.00 | 0.00 | 0.00 | 86 | 1018.8 |
| 20260902063529 | 61 | 281 | 3.0 | 12.0 | 0.00 | 0.00 | 0.00 | 86 | 1018.8 |
| 20260902063033 | 61 | 277 | 6.0 | 12.0 | 0.00 | 0.00 | 0.00 | 86 | 1018.7 |
| 20260902062529 | 61 | 278 | 6.0 | 13.0 | 0.00 | 0.00 | 0.00 | 87 | 1018.7 |
| 20260902062029 | 61 | 319 | 6.0 | 15.0 | 0.00 | 0.00 | 0.00 | 87 | 1018.7 |
| 20260902061545 | 60 | 297 | 3.0 | 15.0 | 0.00 | 0.00 | 0.00 | 88 | 1018.6 |
| 20260902061026 | 60 | 268 | 5.0 | 13.0 | 0.00 | 0.00 | 0.00 | 88 | 1018.7 |
| 20260902060523 | 60 | 259 | 0.0 | 0.0 | 0.00 | 0.00 | 0.00 | 90 | 1018.8 |
| 20260902060025 | 59 | 251 | 0.0 | 0.0 | 0.00 | 0.00 | 0.00 | 89 | 1018.7 |
| 20260902055521 | 59 | 259 | 0.0 | 0.0 | 0.00 | 0.00 | 0.00 | 90 | 1018.7 |
| 20260902055021 | 59 | 250 | 0.0 | 0.0 | 0.00 | 0.00 | 0.00 | 90 | 1018.6 |
| 20260902054519 | 58 | 213 | 0.0 | 0.0 | 0.00 | 0.00 | 0.00 | 91 | 1018.6 |
| 20260902054019 | 58 | 263 | 0.0 | 9.0 | 0.00 | 0.00 | 0.00 | 91 | 1018.6 |
| 20260902053519 | 58 | 259 | 4.0 | 9.0 | 0.00 | 0.00 | 0.00 | 92 | 1018.5 |
| 20260902053024 | 58 | 254 | 0.0 | 9.0 | 0.00 | 0.00 | 0.00 | 92 | 1018.4 |
| 20260902052517 | 57 | 234 | 1.0 | 9.0 | 0.00 | 0.00 | 0.00 | 93 | 1018.5 |
| 20260902052016 | 57 | 232 | 0.0 | 0.0 | 0.00 | 0.00 | 0.00 | 93 | 1018.6 |
| 20260902051516 | 56 | 225 | 0.0 | 0.0 | 0.00 | 0.00 | 0.00 | 93 | 1018.5 |
| 20260902051115 | 56 | 225 | 0.0 | 0.0 | 0.00 | 0.00 | 0.00 | 93 | 1018.4 |
| 20260902050514 | 56 | 225 | 0.0 | 0.0 | 0.00 | 0.00 | 0.00 | 93 | 1018.3 |
| 20260902050014 | 56 | 225 | 0.0 | 0.0 | 0.00 | 0.00 | 0.00 | 93 | 1018.2 |
| 20260902045513 | 56 | 225 | 0.0 | 0.0 | 0.00 | 0.00 | 0.00 | 93 | 1018.2 |
| 20260902045011 | 56 | 225 | 0.0 | 0.0 | 0.00 | 0.00 | 0.00 | 93 | 1018.2 |
| 20260902044510 | 56 | 225 | 0.0 | 0.0 | 0.00 | 0.00 | 0.00 | 93 | 1018.2 |
| 20260902044013 | 55 | 225 | 0.0 | 0.0 | 0.00 | 0.00 | 0.00 | 93 | 1018.2 |
| 20260902043509 | 55 | 225 | 0.0 | 0.0 | 0.00 | 0.00 | 0.00 | 93 | 1018.1 |
| 20260902043010 | 55 | 225 | 0.0 | 0.0 | 0.00 | 0.00 | 0.00 | 93 | 1018.1 |
| 20260902042510 | 55 | 225 | 0.0 | 0.0 | 0.00 | 0.00 | 0.00 | 93 | 1018.0 |
| 20260902042009 | 55 | 225 | 0.0 | 0.0 | 0.00 | 0.00 | 0.00 | 93 | 1018.0 |
| 20260902041508 | 55 | 225 | 0.0 | 0.0 | 0.00 | 0.00 | 0.00 | 94 | 1017.9 |
| 20260902041006 | 55 | 225 | 0.0 | 0.0 | 0.00 | 0.00 | 0.00 | 93 | 1017.9 |
| 20260902040507 | 55 | 225 | 0.0 | 0.0 | 0.00 | 0.00 | 0.00 | 93 | 1017.9 |
| 20260902040007 | 55 | 225 | 0.0 | 0.0 | 0.00 | 0.00 | 0.00 | 93 | 1017.9 |
| 20260902035506 | 55 | 229 | 0.0 | 0.0 | 0.00 | 0.00 | 0.00 | 93 | 1017.9 |
| 20260902035006 | 54 | 234 | 0.0 | 0.0 | 0.00 | 0.00 | 0.00 | 94 | 1018.0 |
| 20260902034506 | 54 | 234 | 0.0 | 0.0 | 0.00 | 0.00 | 0.00 | 93 | 1017.9 |
| 20260902034006 | 54 | 234 | 0.0 | 0.0 | 0.00 | 0.00 | 0.00 | 93 | 1017.9 |
| 20260902033505 | 54 | 234 | 0.0 | 0.0 | 0.00 | 0.00 | 0.00 | 93 | 1017.9 |
| 20260902033006 | 54 | 234 | 0.0 | 0.0 | 0.00 | 0.00 | 0.00 | 93 | 1017.9 |
| 20260902032506 | 54 | 233 | 0.0 | 0.0 | 0.00 | 0.00 | 0.00 | 93 | 1017.9 |
| 20260902032005 | 54 | 234 | 0.0 | 0.0 | 0.00 | 0.00 | 0.00 | 93 | 1017.9 |
| 20260902031506 | 54 | 234 | 0.0 | 0.0 | 0.00 | 0.00 | 0.00 | 93 | 1018.1 |
| 20260902031004 | 54 | 234 | 0.0 | 0.0 | 0.00 | 0.00 | 0.00 | 93 | 1018.1 |
| 20260902030004 | 54 | 234 | 0.0 | 0.0 | 0.00 | 0.00 | 0.00 | 93 | 1018.1 |
| 20260902025504 | 54 | 234 | 0.0 | 0.0 | 0.00 | 0.00 | 0.00 | 93 | 1018.1 |
| 20260902025004 | 54 | 234 | 0.0 | 0.0 | 0.00 | 0.00 | 0.00 | 93 | 1018.1 |
| 20260902024503 | 54 | 234 | 0.0 | 0.0 | 0.00 | 0.00 | 0.00 | 93 | 1018.1 |
| 20260902024003 | 54 | 234 | 0.0 | 0.0 | 0.00 | 0.00 | 0.00 | 93 | 1018.1 |
| 20260902023503 | 54 | 234 | 0.0 | 0.0 | 0.00 | 0.00 | 0.00 | 93 | 1018.2 |
| 20260902023003 | 54 | 234 | 0.0 | 0.0 | 0.00 | 0.00 | 0.00 | 93 | 1018.1 |
| 20260902022503 | 54 | 234 | 0.0 | 0.0 | 0.00 | 0.00 | 0.00 | 93 | 1018.2 |
| 20260902022002 | 54 | 234 | 0.0 | 0.0 | 0.00 | 0.00 | 0.00 | 93 | 1018.1 |
| 20260902021502 | 54 | 234 | 0.0 | 0.0 | 0.00 | 0.00 | 0.00 | 93 | 1018.1 |
| 20260902021002 | 54 | 234 | 0.0 | 0.0 | 0.00 | 0.00 | 0.00 | 93 | 1018.2 |
| 20260902020502 | 54 | 234 | 0.0 | 0.0 | 0.00 | 0.00 | 0.00 | 93 | 1018.2 |
| 20260902020002 | 54 | 234 | 0.0 | 0.0 | 0.00 | 0.01 | 0.00 | 93 | 1018.2 |
| 20260902015502 | 54 | 234 | 0.0 | 0.0 | 0.00 | 0.01 | 0.00 | 93 | 1018.2 |
| 20260902015001 | 54 | 234 | 0.0 | 0.0 | 0.00 | 0.01 | 0.00 | 93 | 1018.2 |
| 20260902014504 | 54 | 234 | 0.0 | 0.0 | 0.00 | 0.01 | 0.00 | 93 | 1018.3 |
| 20260902014000 | 53 | 234 | 0.0 | 0.0 | 0.00 | 0.01 | 0.00 | 93 | 1018.2 |
| 20260902013601 | 53 | 234 | 0.0 | 0.0 | 0.00 | 0.01 | 0.00 | 92 | 1018.2 |
| 20260902013106 | 53 | 234 | 0.0 | 0.0 | 0.00 | 0.01 | 0.00 | 92 | 1018.2 |
| 20260902012602 | 53 | 234 | 0.0 | 0.0 | 0.00 | 0.01 | 0.00 | 92 | 1018.1 |
| 20260902012059 | 53 | 234 | 0.0 | 0.0 | 0.00 | 0.01 | 0.00 | 92 | 1018.1 |
| 20260902011559 | 53 | 234 | 0.0 | 0.0 | 0.00 | 0.01 | 0.00 | 92 | 1018.1 |
| 20260902011058 | 54 | 234 | 0.0 | 0.0 | 0.00 | 0.01 | 0.00 | 92 | 1018.1 |
| 20260902010557 | 54 | 234 | 0.0 | 0.0 | 0.00 | 0.01 | 0.00 | 92 | 1018.1 |
| 20260902005556 | 54 | 234 | 0.0 | 0.0 | 0.00 | 0.01 | 0.00 | 92 | 1018.2 |
| 20260902005056 | 54 | 234 | 0.0 | 0.0 | 0.00 | 0.01 | 0.00 | 92 | 1018.1 |
| 20260902004556 | 54 | 234 | 0.0 | 0.0 | 0.00 | 0.01 | 0.00 | 92 | 1018.1 |
| 20260902004055 | 54 | 234 | 0.0 | 0.0 | 0.00 | 0.01 | 0.00 | 91 | 1017.9 |
| 20260902003555 | 54 | 234 | 0.0 | 0.0 | 0.00 | 0.01 | 0.00 | 91 | 1018.0 |
| 20260902003055 | 54 | 234 | 0.0 | 0.0 | 0.00 | 0.01 | 0.00 | 91 | 1017.9 |
| 20260902002553 | 54 | 234 | 0.0 | 0.0 | 0.00 | 0.01 | 0.00 | 91 | 1017.9 |
| 20260902002053 | 54 | 234 | 0.0 | 0.0 | 0.00 | 0.01 | 0.00 | 91 | 1017.9 |
| 20260902001610 | 54 | 234 | 0.0 | 0.0 | 0.00 | 0.01 | 0.00 | 91 | 1017.9 |
| 20260902001055 | 55 | 234 | 0.0 | 0.0 | 0.00 | 0.01 | 0.00 | 91 | 1017.8 |
| 20260902000551 | 55 | 234 | 0.0 | 0.0 | 0.00 | 0.01 | 0.00 | 91 | 1017.9 |
| 20260902000053 | 55 | 234 | 0.0 | 0.0 | 0.00 | 0.01 | 0.00 | 90 | 1017.9 |
| 20260901235551 | 55 | 234 | 0.0 | 0.0 | 0.00 | 0.01 | 0.00 | 90 | 1017.8 |
| 20260901235050 | 55 | 234 | 0.0 | 0.0 | 0.00 | 0.01 | 0.00 | 90 | 1017.8 |
| 20260901234549 | 55 | 234 | 0.0 | 0.0 | 0.00 | 0.01 | 0.00 | 90 | 1017.8 |
| 20260901234049 | 55 | 234 | 0.0 | 0.0 | 0.00 | 0.01 | 0.00 | 90 | 1017.8 |
| 20260901233548 | 56 | 234 | 0.0 | 0.0 | 0.00 | 0.01 | 0.00 | 90 | 1017.7 |
| 20260901233049 | 56 | 234 | 0.0 | 0.0 | 0.00 | 0.01 | 0.00 | 90 | 1017.8 |
| 20260901232547 | 56 | 234 | 0.0 | 0.0 | 0.00 | 0.01 | 0.00 | 90 | 1017.8 |
| 20260901232047 | 56 | 234 | 0.0 | 0.0 | 0.00 | 0.01 | 0.00 | 90 | 1017.7 |
| 20260901231546 | 56 | 234 | 0.0 | 0.0 | 0.00 | 0.01 | 0.00 | 89 | 1017.8 |
| 20260901231046 | 56 | 234 | 0.0 | 0.0 | 0.00 | 0.01 | 0.00 | 89 | 1017.7 |
| 20260901230545 | 56 | 234 | 0.0 | 0.0 | 0.00 | 0.01 | 0.00 | 89 | 1017.8 |
| 20260901230045 | 56 | 234 | 0.0 | 0.0 | 0.00 | 0.01 | 0.00 | 89 | 1017.8 |
| 20260901225043 | 57 | 234 | 0.0 | 0.0 | 0.00 | 0.01 | 0.00 | 88 | 1017.8 |
| 20260901224544 | 57 | 234 | 0.0 | 0.0 | 0.00 | 0.01 | 0.00 | 87 | 1017.8 |
| 20260901224041 | 57 | 234 | 0.0 | 0.0 | 0.00 | 0.01 | 0.00 | 87 | 1017.8 |
| 20260901223541 | 57 | 234 | 0.0 | 0.0 | 0.00 | 0.01 | 0.00 | 86 | 1017.8 |
| 20260901223047 | 58 | 234 | 0.0 | 0.0 | 0.00 | 0.01 | 0.00 | 86 | 1017.8 |
| 20260901222540 | 58 | 234 | 0.0 | 0.0 | 0.00 | 0.01 | 0.00 | 86 | 1017.8 |
| 20260901222040 | 58 | 234 | 0.0 | 0.0 | 0.00 | 0.01 | 0.00 | 86 | 1017.8 |
| 20260901221554 | 58 | 234 | 0.0 | 0.0 | 0.00 | 0.01 | 0.00 | 86 | 1017.8 |
| 20260901221037 | 59 | 234 | 0.0 | 0.0 | 0.00 | 0.01 | 0.00 | 85 | 1017.8 |
| 20260901220535 | 59 | 234 | 0.0 | 0.0 | 0.00 | 0.01 | 0.00 | 85 | 1017.8 |
| 20260901220036 | 59 | 234 | 0.0 | 0.0 | 0.00 | 0.01 | 0.01 | 85 | 1017.8 |
| 20260901215534 | 59 | 234 | 0.0 | 0.0 | 0.00 | 0.01 | 0.01 | 85 | 1017.8 |
| 20260901215035 | 59 | 234 | 0.0 | 0.0 | 0.00 | 0.01 | 0.01 | 85 | 1017.8 |
| 20260901214534 | 59 | 234 | 0.0 | 0.0 | 0.00 | 0.01 | 0.01 | 85 | 1017.7 |
| 20260901214034 | 60 | 234 | 0.0 | 0.0 | 0.00 | 0.01 | 0.01 | 85 | 1017.7 |
| 20260901213536 | 60 | 234 | 0.0 | 0.0 | 0.00 | 0.01 | 0.01 | 85 | 1017.8 |
| 20260901213033 | 60 | 234 | 0.0 | 0.0 | 0.00 | 0.01 | 0.01 | 85 | 1017.8 |
| 20260901212535 | 60 | 234 | 0.0 | 0.0 | 0.00 | 0.01 | 0.01 | 85 | 1017.8 |
| 20260901212034 | 60 | 234 | 0.0 | 0.0 | 0.00 | 0.01 | 0.01 | 85 | 1017.8 |
| 20260901211533 | 60 | 234 | 0.0 | 0.0 | 0.00 | 0.01 | 0.01 | 85 | 1017.8 |
| 20260901211035 | 60 | 234 | 0.0 | 0.0 | 0.00 | 0.01 | 0.01 | 86 | 1017.8 |
| 20260901210532 | 60 | 232 | 0.0 | 0.0 | 0.00 | 0.01 | 0.01 | 86 | 1017.7 |
| 20260901210032 | 60 | 232 | 0.0 | 0.0 | 0.00 | 0.01 | 0.01 | 85 | 1017.7 |
| 20260901205632 | 60 | 232 | 0.0 | 0.0 | 0.00 | 0.01 | 0.01 | 85 | 1017.7 |
| 20260901205037 | 60 | 232 | 0.0 | 0.0 | 0.00 | 0.01 | 0.01 | 85 | 1017.7 |
| 20260901204531 | 60 | 232 | 0.0 | 0.0 | 0.00 | 0.01 | 0.01 | 84 | 1017.7 |
| 20260901204033 | 60 | 232 | 0.0 | 0.0 | 0.00 | 0.01 | 0.01 | 84 | 1017.7 |
| 20260901203531 | 61 | 232 | 0.0 | 0.0 | 0.00 | 0.01 | 0.01 | 84 | 1017.6 |
| 20260901203031 | 61 | 232 | 0.0 | 0.0 | 0.00 | 0.01 | 0.01 | 84 | 1017.6 |
| 20260901202531 | 61 | 232 | 0.0 | 0.0 | 0.00 | 0.01 | 0.01 | 83 | 1017.6 |
| 20260901202031 | 61 | 232 | 0.0 | 0.0 | 0.00 | 0.01 | 0.01 | 83 | 1017.6 |
| 20260901201531 | 61 | 232 | 0.0 | 0.0 | 0.00 | 0.01 | 0.01 | 83 | 1017.6 |
| 20260901201033 | 61 | 232 | 0.0 | 0.0 | 0.00 | 0.01 | 0.01 | 83 | 1017.6 |
| 20260901200529 | 62 | 234 | 0.0 | 0.0 | 0.00 | 0.01 | 0.01 | 83 | 1017.7 |
| 20260901200037 | 62 | 234 | 0.0 | 0.0 | 0.00 | 0.01 | 0.01 | 83 | 1017.7 |
| 20260901195529 | 62 | 234 | 0.0 | 0.0 | 0.00 | 0.01 | 0.01 | 83 | 1017.8 |
| 20260901195132 | 62 | 234 | 0.0 | 0.0 | 0.00 | 0.01 | 0.01 | 83 | 1017.7 |
| 20260901194529 | 62 | 234 | 0.0 | 0.0 | 0.00 | 0.01 | 0.01 | 83 | 1017.8 |
| 20260901194033 | 62 | 234 | 0.0 | 0.0 | 0.00 | 0.01 | 0.01 | 82 | 1017.8 |
| 20260901193529 | 62 | 234 | 0.0 | 0.0 | 0.00 | 0.01 | 0.01 | 82 | 1017.8 |
| 20260901193028 | 62 | 234 | 0.0 | 0.0 | 0.00 | 0.01 | 0.01 | 82 | 1017.8 |
| 20260901192528 | 62 | 236 | 0.0 | 0.0 | 0.00 | 0.01 | 0.01 | 82 | 1017.8 |
| 20260901192030 | 62 | 238 | 0.0 | 0.0 | 0.00 | 0.01 | 0.01 | 82 | 1017.7 |
| 20260901191549 | 62 | 250 | 0.0 | 0.0 | 0.00 | 0.01 | 0.01 | 82 | 1017.8 |
| 20260901191027 | 62 | 266 | 0.0 | 0.0 | 0.00 | 0.01 | 0.01 | 82 | 1017.7 |
| 20260901190528 | 62 | 266 | 0.0 | 0.0 | 0.00 | 0.01 | 0.01 | 82 | 1017.8 |
| 20260901190027 | 63 | 266 | 0.0 | 0.0 | 0.00 | 0.01 | 0.01 | 81 | 1017.7 |
| 20260901185528 | 63 | 266 | 0.0 | 0.0 | 0.00 | 0.01 | 0.01 | 81 | 1017.7 |
| 20260901185027 | 63 | 266 | 0.0 | 0.0 | 0.00 | 0.01 | 0.01 | 80 | 1017.7 |
| 20260901184530 | 63 | 266 | 0.0 | 0.0 | 0.00 | 0.01 | 0.01 | 80 | 1017.7 |
| 20260901184026 | 63 | 266 | 0.0 | 0.0 | 0.00 | 0.01 | 0.01 | 80 | 1017.7 |
| 20260901183526 | 64 | 266 | 0.0 | 0.0 | 0.00 | 0.01 | 0.01 | 79 | 1017.5 |
| 20260901183024 | 64 | 266 | 0.0 | 0.0 | 0.00 | 0.01 | 0.01 | 79 | 1017.6 |
| 20260901182524 | 64 | 266 | 0.0 | 0.0 | 0.00 | 0.01 | 0.01 | 78 | 1017.5 |
| 20260901182023 | 64 | 266 | 0.0 | 0.0 | 0.00 | 0.01 | 0.01 | 78 | 1017.4 |
| 20260901181524 | 64 | 266 | 0.0 | 0.0 | 0.00 | 0.01 | 0.01 | 78 | 1017.4 |
| 20260901181023 | 65 | 266 | 0.0 | 0.0 | 0.00 | 0.01 | 0.01 | 77 | 1017.4 |
| 20260901180524 | 65 | 267 | 0.0 | 0.0 | 0.00 | 0.01 | 0.01 | 77 | 1017.3 |
| 20260901180021 | 65 | 277 | 0.0 | 0.0 | 0.00 | 0.01 | 0.01 | 77 | 1017.3 |
| 20260901175523 | 65 | 277 | 0.0 | 0.0 | 0.00 | 0.01 | 0.01 | 77 | 1017.3 |
| 20260901175025 | 65 | 277 | 0.0 | 0.0 | 0.00 | 0.01 | 0.01 | 76 | 1017.2 |
| 20260901174620 | 65 | 277 | 0.0 | 4.0 | 0.00 | 0.01 | 0.01 | 76 | 1017.2 |
| 20260901174020 | 65 | 277 | 0.0 | 7.0 | 0.00 | 0.01 | 0.01 | 76 | 1017.1 |
| 20260901173519 | 65 | 277 | 1.0 | 9.0 | 0.00 | 0.01 | 0.01 | 75 | 1017.1 |
| 20260901173024 | 65 | 280 | 1.0 | 9.0 | 0.00 | 0.01 | 0.01 | 75 | 1017.1 |
| 20260901172519 | 65 | 276 | 2.0 | 13.0 | 0.00 | 0.01 | 0.01 | 75 | 1017.0 |
| 20260901172018 | 65 | 256 | 5.0 | 11.0 | 0.00 | 0.01 | 0.01 | 74 | 1016.9 |
| 20260901171522 | 66 | 249 | 4.0 | 9.0 | 0.00 | 0.01 | 0.01 | 74 | 1016.9 |
| 20260901171116 | 66 | 253 | 2.0 | 9.0 | 0.00 | 0.01 | 0.01 | 74 | 1016.8 |
| 20260901170516 | 66 | 256 | 2.0 | 13.0 | 0.00 | 0.01 | 0.01 | 74 | 1016.8 |
| 20260901170015 | 66 | 223 | 4.0 | 13.0 | 0.00 | 0.01 | 0.01 | 73 | 1016.7 |
| 20260901165514 | 66 | 208 | 0.0 | 12.0 | 0.00 | 0.01 | 0.01 | 73 | 1016.7 |
| 20260901165014 | 66 | 254 | 5.0 | 14.0 | 0.00 | 0.01 | 0.01 | 73 | 1016.7 |
| 20260901164533 | 66 | 213 | 6.0 | 14.0 | 0.00 | 0.01 | 0.01 | 73 | 1016.6 |
| 20260901164013 | 67 | 246 | 4.0 | 13.0 | 0.00 | 0.01 | 0.01 | 72 | 1016.7 |
| 20260901163516 | 67 | 265 | 3.0 | 19.0 | 0.00 | 0.01 | 0.01 | 72 | 1016.6 |
| 20260901163013 | 67 | 263 | 7.0 | 19.0 | 0.00 | 0.01 | 0.01 | 71 | 1016.6 |
| 20260901162513 | 68 | 217 | 8.0 | 21.0 | 0.00 | 0.01 | 0.01 | 70 | 1016.6 |
| 20260901162016 | 68 | 252 | 12.0 | 21.0 | 0.00 | 0.01 | 0.01 | 70 | 1016.6 |
| 20260901161526 | 68 | 250 | 9.0 | 19.0 | 0.00 | 0.01 | 0.01 | 71 | 1016.6 |
| 20260901161012 | 68 | 202 | 8.0 | 23.0 | 0.00 | 0.01 | 0.01 | 71 | 1016.6 |
| 20260901160514 | 68 | 258 | 8.0 | 23.0 | 0.00 | 0.01 | 0.01 | 71 | 1016.5 |
| 20260901160011 | 68 | 240 | 5.0 | 14.0 | 0.00 | 0.01 | 0.01 | 72 | 1016.5 |
| 20260901155510 | 67 | 244 | 6.0 | 19.0 | 0.00 | 0.01 | 0.01 | 72 | 1016.4 |
| 20260901155011 | 67 | 279 | 7.0 | 19.0 | 0.00 | 0.01 | 0.01 | 71 | 1016.4 |
| 20260901154510 | 68 | 293 | 7.0 | 17.0 | 0.00 | 0.01 | 0.01 | 71 | 1016.4 |
| 20260901153511 | 68 | 264 | 8.0 | 20.0 | 0.00 | 0.01 | 0.01 | 71 | 1016.4 |
| 20260901153009 | 68 | 301 | 9.0 | 20.0 | 0.00 | 0.01 | 0.01 | 71 | 1016.4 |
| 20260901152508 | 67 | 299 | 5.0 | 19.0 | 0.00 | 0.01 | 0.01 | 71 | 1016.4 |
| 20260901152008 | 67 | 335 | 10.0 | 19.0 | 0.00 | 0.01 | 0.01 | 71 | 1016.3 |
| 20260901151510 | 67 | 260 | 9.0 | 22.0 | 0.00 | 0.01 | 0.01 | 71 | 1016.3 |
| 20260901151008 | 67 | 316 | 12.0 | 22.0 | 0.00 | 0.01 | 0.01 | 70 | 1016.3 |
| 20260901150509 | 68 | 286 | 10.0 | 21.0 | 0.00 | 0.01 | 0.01 | 70 | 1016.3 |
| 20260901150008 | 68 | 300 | 11.0 | 20.0 | 0.00 | 0.01 | 0.01 | 70 | 1016.2 |
| 20260901145508 | 68 | 286 | 12.0 | 21.0 | 0.00 | 0.01 | 0.01 | 70 | 1016.2 |
| 20260901145008 | 68 | 271 | 11.0 | 25.0 | 0.00 | 0.01 | 0.01 | 71 | 1016.2 |
| 20260901144507 | 68 | 227 | 13.0 | 25.0 | 0.00 | 0.01 | 0.01 | 74 | 1016.2 |
| 20260901144009 | 66 | 274 | 3.0 | 8.0 | 0.00 | 0.01 | 0.01 | 80 | 1016.2 |
| 20260901143506 | 66 | 300 | 1.0 | 9.0 | 0.00 | 0.01 | 0.01 | 80 | 1016.2 |
| 20260901143007 | 65 | 302 | 3.0 | 10.0 | 0.00 | 0.01 | 0.01 | 81 | 1016.3 |
| 20260901142506 | 65 | 286 | 5.0 | 11.0 | 0.00 | 0.01 | 0.01 | 81 | 1016.3 |
| 20260901142006 | 65 | 279 | 3.0 | 15.0 | 0.00 | 0.01 | 0.01 | 81 | 1016.3 |
| 20260901141506 | 65 | 307 | 7.0 | 17.0 | 0.00 | 0.01 | 0.01 | 81 | 1016.3 |
| 20260901141006 | 65 | 326 | 7.0 | 17.0 | 0.00 | 0.01 | 0.01 | 81 | 1016.2 |
| 20260901140505 | 65 | 339 | 9.0 | 17.0 | 0.00 | 0.01 | 0.01 | 81 | 1016.2 |
| 20260901140005 | 65 | 355 | 10.0 | 26.0 | 0.00 | 0.02 | 0.01 | 80 | 1016.3 |
| 20260901135505 | 66 | 360 | 8.0 | 26.0 | 0.00 | 0.02 | 0.01 | 79 | 1016.3 |
| 20260901135006 | 65 | 303 | 8.0 | 24.0 | 0.00 | 0.02 | 0.01 | 79 | 1016.3 |
| 20260901134505 | 66 | 321 | 11.0 | 27.0 | 0.00 | 0.02 | 0.01 | 78 | 1016.3 |
| 20260901134004 | 66 | 290 | 15.0 | 27.0 | 0.00 | 0.02 | 0.01 | 76 | 1016.2 |
| 20260901133003 | 67 | 226 | 8.0 | 20.0 | 0.00 | 0.02 | 0.01 | 73 | 1016.3 |
| 20260901132504 | 68 | 290 | 10.0 | 30.0 | 0.00 | 0.02 | 0.01 | 72 | 1016.3 |
| 20260901132002 | 68 | 274 | 15.0 | 30.0 | 0.00 | 0.02 | 0.01 | 70 | 1016.2 |
| 20260901131504 | 68 | 278 | 8.0 | 31.0 | 0.00 | 0.02 | 0.01 | 72 | 1016.1 |
| 20260901131002 | 69 | 226 | 14.0 | 31.0 | 0.00 | 0.02 | 0.01 | 70 | 1016.2 |
| 20260901130503 | 69 | 308 | 11.0 | 32.0 | 0.00 | 0.02 | 0.01 | 72 | 1016.1 |
| 20260901130002 | 68 | 242 | 17.0 | 31.0 | 0.00 | 0.07 | 0.01 | 71 | 1016.2 |
| 20260901125600 | 68 | 196 | 13.0 | 31.0 | 0.00 | 0.07 | 0.01 | 72 | 1016.3 |
| 20260901125100 | 68 | 243 | 15.0 | 30.0 | 0.00 | 0.07 | 0.01 | 71 | 1016.3 |
| 20260901124602 | 68 | 251 | 11.0 | 33.0 | 0.00 | 0.07 | 0.01 | 71 | 1016.3 |
| 20260901124059 | 68 | 277 | 14.0 | 34.0 | 0.00 | 0.07 | 0.01 | 72 | 1016.2 |
| 20260901123558 | 68 | 259 | 14.0 | 34.0 | 0.00 | 0.07 | 0.01 | 71 | 1016.1 |
| 20260901123059 | 68 | 263 | 17.0 | 38.0 | 0.00 | 0.07 | 0.01 | 70 | 1016.1 |
| 20260901122559 | 68 | 271 | 16.0 | 38.0 | 0.00 | 0.07 | 0.01 | 70 | 1016.0 |
| 20260901122057 | 68 | 296 | 15.0 | 31.0 | 0.00 | 0.07 | 0.01 | 70 | 1016.0 |
| 20260901121557 | 67 | 235 | 15.0 | 27.0 | 0.00 | 0.07 | 0.01 | 71 | 1016.1 |
| 20260901121059 | 68 | 304 | 12.0 | 26.0 | 0.00 | 0.07 | 0.01 | 71 | 1015.9 |
| 20260901120557 | 67 | 223 | 10.0 | 30.0 | 0.00 | 0.07 | 0.01 | 72 | 1016.0 |
| 20260901120056 | 67 | 246 | 11.0 | 30.0 | 0.00 | 0.07 | 0.01 | 73 | 1016.0 |
| 20260901115556 | 66 | 273 | 11.0 | 21.0 | 0.00 | 0.07 | 0.01 | 74 | 1016.0 |
| 20260901115057 | 66 | 285 | 10.0 | 20.0 | 0.00 | 0.07 | 0.01 | 74 | 1016.0 |
| 20260901114632 | 66 | 238 | 10.0 | 31.0 | 0.00 | 0.07 | 0.01 | 74 | 1015.9 |
| 20260901114055 | 66 | 273 | 14.0 | 40.0 | 0.00 | 0.07 | 0.01 | 74 | 1016.1 |
| 20260901113555 | 66 | 306 | 17.0 | 40.0 | 0.00 | 0.07 | 0.01 | 74 | 1016.0 |
| 20260901112554 | 65 | 298 | 12.0 | 30.0 | 0.00 | 0.07 | 0.01 | 76 | 1016.0 |
| 20260901112053 | 65 | 262 | 14.0 | 25.0 | 0.00 | 0.07 | 0.01 | 75 | 1015.8 |
| 20260901111553 | 66 | 272 | 10.0 | 25.0 | 0.00 | 0.07 | 0.01 | 74 | 1015.8 |
| 20260901111053 | 66 | 284 | 8.0 | 43.0 | 0.00 | 0.07 | 0.01 | 73 | 1015.9 |
| 20260901110552 | 67 | 283 | 17.0 | 43.0 | 0.00 | 0.07 | 0.01 | 71 | 1015.8 |
| 20260901110054 | 68 | 287 | 19.0 | 37.0 | 0.00 | 0.07 | 0.01 | 70 | 1015.7 |
| 20260901105551 | 67 | 219 | 10.0 | 33.0 | 0.00 | 0.07 | 0.01 | 72 | 1015.8 |
| 20260901105051 | 66 | 329 | 13.0 | 34.0 | 0.00 | 0.07 | 0.01 | 72 | 1015.8 |
| 20260901104550 | 67 | 326 | 21.0 | 34.0 | 0.00 | 0.07 | 0.01 | 72 | 1015.7 |
| 20260901104051 | 66 | 267 | 12.0 | 25.0 | 0.00 | 0.07 | 0.01 | 75 | 1015.8 |
| 20260901103548 | 65 | 260 | 11.0 | 25.0 | 0.00 | 0.07 | 0.01 | 77 | 1015.8 |
| 20260901103049 | 64 | 329 | 13.0 | 27.0 | 0.00 | 0.07 | 0.01 | 78 | 1015.7 |
| 20260901102549 | 64 | 246 | 12.0 | 25.0 | 0.00 | 0.07 | 0.01 | 78 | 1015.8 |
| 20260901102049 | 65 | 242 | 14.0 | 32.0 | 0.00 | 0.07 | 0.01 | 76 | 1015.7 |
| 20260901101550 | 65 | 263 | 15.0 | 32.0 | 0.00 | 0.07 | 0.01 | 74 | 1015.6 |
| 20260901101047 | 66 | 337 | 15.0 | 28.0 | 0.00 | 0.07 | 0.01 | 74 | 1015.5 |
| 20260901100547 | 66 | 260 | 12.0 | 26.0 | 0.00 | 0.07 | 0.01 | 73 | 1015.5 |
| 20260901100049 | 67 | 307 | 14.0 | 32.0 | 0.00 | 0.07 | 0.01 | 73 | 1015.4 |
| 20260901095546 | 65 | 247 | 12.0 | 32.0 | 0.00 | 0.07 | 0.01 | 75 | 1015.4 |
| 20260901095046 | 66 | 300 | 17.0 | 34.0 | 0.00 | 0.07 | 0.01 | 73 | 1015.4 |
| 20260901094546 | 65 | 248 | 15.0 | 36.0 | 0.00 | 0.07 | 0.01 | 75 | 1015.4 |
| 20260901094044 | 66 | 220 | 17.0 | 36.0 | 0.00 | 0.07 | 0.01 | 75 | 1015.4 |
| 20260901093546 | 66 | 265 | 12.0 | 36.0 | 0.00 | 0.07 | 0.01 | 75 | 1015.4 |
| 20260901093043 | 66 | 311 | 18.0 | 35.0 | 0.00 | 0.07 | 0.01 | 75 | 1015.2 |
| 20260901092042 | 65 | 248 | 12.0 | 31.0 | 0.00 | 0.07 | 0.01 | 76 | 1015.2 |
| 20260901091544 | 65 | 292 | 12.0 | 40.0 | 0.00 | 0.07 | 0.01 | 75 | 1015.1 |
| 20260901091041 | 66 | 268 | 22.0 | 40.0 | 0.00 | 0.07 | 0.01 | 73 | 1015.1 |
| 20260901090541 | 67 | 269 | 14.0 | 34.0 | 0.00 | 0.07 | 0.01 | 73 | 1015.1 |
| 20260901090046 | 67 | 252 | 15.0 | 30.0 | 0.00 | 0.07 | 0.01 | 74 | 1015.0 |
| 20260901085539 | 66 | 232 | 18.0 | 34.0 | 0.00 | 0.07 | 0.01 | 75 | 1015.1 |
| 20260901085039 | 66 | 268 | 17.0 | 34.0 | 0.00 | 0.07 | 0.01 | 75 | 1015.0 |
| 20260901084543 | 65 | 168 | 13.0 | 30.0 | 0.00 | 0.07 | 0.01 | 75 | 1015.0 |
| 20260901084040 | 66 | 272 | 14.0 | 29.0 | 0.00 | 0.07 | 0.01 | 75 | 1015.0 |